Location: Breungeshain
(50.5000°N, 9.2000°E)
Time: 14:25:30
(UTC+00:00)

ISS - Visible Passes

Search period start: 18 December 2017 00:00
Search period end: 28 December 2017 00:00
Orbit: 402 x 406 km, 51.6° (Epoch: 18 December)

Date Brightness Start Highest point End Pass type
(mag) Time Alt. Az. Time Alt. Az. Time Alt. Az.
18 Dec -0.8 15:55:31 10° W 15:58:01 20° SW 16:00:30 10° SSE visible
25 Dec -0.5 06:37:47 10° S 06:39:41 15° SE 06:41:35 10° ESE visible
27 Dec -1.4 06:28:21 10° SSW 06:31:09 26° SE 06:33:58 10° E visible
